Location: Bushey
(51.6333°N, 0.3667°W)
Time: 18:44:08
(UTC+00:00)

ARIANE 5 R/B - Visible Passes

Search period start: 22 June 2021 00:00
Search period end: 02 July 2021 00:00
Orbit: 620 x 656 km, 98.1° (Epoch: 13 June)

Date Brightness Start Highest point End Pass type
(mag) Time Alt. Az. Time Alt. Az. Time Alt. Az.
22 Jun 4.7 22:26:18 10° SW 22:29:46 22° W 22:33:16 10° NW visible
23 Jun 2.7 21:11:21 10° SSE 21:15:50 85° ENE 21:20:23 10° NNW visible
23 Jun 5.1 22:50:36 10° WSW 22:52:55 14° W 22:55:16 10° NW visible
24 Jun 3.1 21:34:19 10° S 21:38:45 60° WSW 21:43:14 10° NNW visible
25 Jun 3.9 21:57:34 10° SSW 22:01:44 37° W 22:05:59 10° NNW visible
26 Jun 4.5 22:21:09 10° SSW 22:24:48 24° W 22:28:29 10° NW visible
27 Jun 2.7 21:06:27 10° SSE 21:10:56 77° ENE 21:15:29 10° NNW visible
27 Jun 5.1 22:45:15 10° SW 22:47:57 15° W 22:50:39 10° NW visible
28 Jun 3.0 21:29:21 10° S 21:33:50 68° WSW 21:38:22 10° NNW visible
29 Jun 3.7 21:52:32 10° S 21:56:48 42° W 22:01:08 10° NNW visible
30 Jun 4.4 22:16:02 10° SSW 22:19:50 27° W 22:23:43 10° NW visible
01 Jul 2.8 21:01:33 10° SSE 21:06:02 69° ENE 21:10:34 10° N visible
01 Jul 5.0 22:39:58 10° SW 22:42:58 17° W 22:45:59 10° NW visible
